Погода в Темнике

Россия / Республика Бурятия     51°00′17″N   106°11′24″E
темп.,
°C
ветер,
м/с
пор.,
м/с
влажн.,
%
обл.,
%
осадки,
мм/ч
давл.,
гПа
погр.,
м
13 апреля, вт
вт1323:000ссв22527 0.0 102613
02:00−3зсз11780 0.0 102610
05:00−4зсз11820 0.0 102510
08:00−1зюз11605 0.0 1024230
11:00+5юз443417 0.0 10201148
14:00+9ююз462990 0.0 10152014
17:00+10св4436100 0.0 10121268
20:00+7всв2247100 0.0 101334
14 апреля, ср
ср1423:00+4с5764100 0.1 1015409
02:00+3ссз61260100 0.4 10161083
05:00+1ссз81358100 0.0 10171204
08:000с51160100 0.1 10191242
11:00+2с71044100 0.0 10191582
14:00+3ссз8935100 0.0 10182150
17:00+3с71038100 0.0 10182179
20:00−1ссв11582 0.0 101911
15 апреля, чт
чт1523:00−2зюз22584 0.0 101912
02:00−3зюз22595 0.0 101812
05:00−4юз226191 0.0 101518
08:00−1юз2347100 0.0 1014231
11:00+3з2433100 0.0 10121027
14:00+5сз121439100 0.4 10112272
17:00+4ссз11203420 0.0 10152599
20:00+1ссз814450 0.0 10191164
16 апреля, пт
пт1623:00−1ссз49535 0.0 1022263
02:00
05:00−4ююз22665 0.0 102314
08:00−1з125579 0.0 1023286
11:00+5зюз243565 0.0 1020904
14:00+10ююз4528100 0.0 10171695
17:00+11юз45257 0.0 10141683
20:00+8ю22352 0.0 101411
17 апреля, сб
сб1723:00+4ююз11505 0.0 101511
02:00+2ююз11535 0.0 101611
05:00+1ю12605 0.0 101311
08:00+4ююв124959 0.0 1013179
11:00+11ю24355 0.0 1010841
14:00+15ююз24260 0.0 10061499
17:00+17юз24220 0.0 10041730
20:00+11всв22355 0.0 100313